Location: ??????
(38.0131°N, 23.7723°E)
Time: 06:09:43
(UTC+00:00)

PSLV R/B - Pass Details

Date: 17 October 2021
Orbit: 501 x 576 km, 97.8° (Epoch: 28 November)

Event Time Altitude Azimuth Distance (km) Brightness Sun altitude
Rises 16:15:43 0° 173° (S) 2,774 7.4 -6.9°
Reaches altitude 10° 16:17:52 10° 176° (S) 1,877 6.6 -7.3°
Maximum altitude 16:21:55 65° 258° (WSW) 633 4.4 -8.1°
Drops below altitude 10° 16:25:57 10° 341° (NNW) 1,866 6.7 -8.9°
Sets 16:28:06 0° 345° (NNW) 2,757 7.5 -9.3°
